Simultaneous Nadir Overpasses (SNOs) Predictions

Prediction of SNOs between LANDSAT-8 and METOP-A Satellite Orbit:

Table of predicted SNOs for the next 14.0 days since TLE Epoch: 4/11/2015
Index Date (LANDSAT-8) Time (LANDSAT-8) Lat,Lon (LANDSAT-8) SZA (LANDSAT-8 ) Date (METOP-A) Time (METOP-A) Lat,Lon (METOP-A) SZA (METOP-A ) Distance(km) Time Diff (sec)
1 04/13/2015 23:34:57 81.11,-134.72 73.89 04/13/2015 23:34:38 81.11,-134.87 73.87 2.66 19
2 04/14/2015 00:24:22 -81.16, 33.60 106.02 04/14/2015 00:25:16 -81.15, 33.67 105.99 1.25 54
3 04/16/2015 19:09:13 81.13, -67.97 72.96 04/16/2015 19:08:57 81.13, -68.05 72.94 1.62 16
4 04/16/2015 19:58:39 -81.15, 100.01 107.01 04/16/2015 19:59:36 -81.16, 100.14 106.97 2.11 57
5 04/19/2015 14:43:30 81.12, -1.67 71.98 04/19/2015 14:43:16 81.13, -1.66 71.97 0.13 14
6
